Wind_Speed
26 25 25 25 24 25 26 26 27 25 25 24 24 24 24 24 25 25 27 27 26 24 22 20 20 19 19 19 20 20 21 20 20 20 21 20 20 20 20 20 20 20 21 21
27 26 26 27 26 26 26 27 28 27 27 26 26 26 26 26 26 26 27 27 27 24 23 22 21 21 20 21 21 21 21 21 22 22 21 21 21 21 22 21 21 21 22 22
28 28 28 28 26 26 27 28 28 27 27 27 26 26 26 26 27 28 27 27 26 26 25 24 24 24 23 22 22 22 23 23 23 23 22 22 23 23 23 22 22 22 21 22
29 28 29 28 28 27 27 28 28 28 28 28 28 28 28 28 29 28 27 27 27 26 25 25 25 25 24 23 23 22 23 23 23 24 24 24 24 24 24 23 23 22 22 22
30 30 29 28 28 28 28 29 29 30 29 28 28 29 29 30 30 31 30 29 28 27 26 26 26 25 24 24 24 24 24 24 25 25 25 25 24 25 24 24 24 24 23 22
31 32 31 29 27 27 28 30 29 29 28 28 29 30 30 31 31 30 29 29 29 28 28 28 27 26 25 25 25 25 25 25 26 26 26 25 25 25 25 25 25 24 23 22
31 33 32 30 28 28 29 29 28 28 29 29 30 30 30 29 29 30 29 28 28 28 28 27 26 26 25 26 26 26 26 25 25 25 25 26 26 26 26 26 26 26 24 23
32 32 32 30 29 29 29 28 28 28 29 30 30 30 30 30 29 29 29 29 29 30 29 28 28 27 26 26 27 27 27 27 26 25 25 26 26 27 27 27 27 27 26 23
34 33 31 30 30 29 28 28 28 28 28 29 30 30 31 30 30 29 29 30 30 30 30 30 29 28 27 27 28 28 27 27 27 26 26 26 27 28 28 27 26 25 25 24
33 32 31 31 30 30 30 29 28 28 28 28 29 30 31 30 30 29 30 30 30 29 29 30 30 30 29 29 28 28 28 27 27 28 27 28 28 28 27 27 25 25 25 24
32 33 32 30 30 30 30 29 29 29 29 30 30 31 31 31 30 29 29 29 29 30 30 30 29 30 29 28 28 28 28 28 28 28 28 28 27 27 27 26 26 25 24 24
30 31 32 30 29 29 29 29 29 28 29 29 30 31 31 31 31 30 30 30 29 29 29 29 29 29 28 28 28 28 28 28 28 28 27 27 27 27 26 26 25 24 23 23
30 30 31 31 31 30 29 28 28 28 28 29 30 30 31 31 30 30 29 29 30 29 29 28 27 27 27 28 28 28 27 27 27 26 26 25 25 25 24 24 24 23 23 23
28 29 30 30 30 29 29 29 29 29 29 30 31 31 31 30 30 30 29 30 29 28 28 28 27 27 27 27 28 28 27 26 26 26 25 25 24 24 24 23 23 24 23 23
27 29 30 31 31 30 30 30 30 30 31 31 32 32 32 31 31 30 30 30 29 28 28 28 27 27 27 27 27 27 26 26 26 25 26 25 24 24 24 23 23 23 23 23
28 29 31 31 32 32 31 31 31 32 32 32 33 33 34 33 32 31 31 30 29 28 28 27 27 26 27 27 26 26 26 26 26 26 25 25 24 24 24 24 23 23 23 23
27 29 30 31 32 32 31 31 31 31 32 32 33 33 32 31 30 29 29 28 28 27 28 27 27 26 26 26 26 25 24 24 24 25 25 25 25 25 24 24 24 24 23 23
26 27 28 29 29 30 31 30 30 30 31 30 31 31 30 29 28 27 26 26 26 26 25 26 25 25 25 24 24 24 24 24 25 25 24 23 24 24 24 24 23 23 22 22
26 26 26 27 26 27 27 28 28 28 29 29 29 28 27 26 25 24 24 24 24 23 23 24 24 24 23 24 24 24 24 24 24 23 23 23 23 23 22 23 23 23 22 21
23 23 24 25 25 25 26 26 26 26 26 26 25 25 24 23 23 23 23 22 22 22 23 23 23 22 22 22 22 23 23 23 23 23 23 22 22 22 22 22 22 21 21 21
22 23 23 23 23 23 23 23 22 22 22 22 21 21 21 20 20 20 20 21 21 21 21 21 21 22 22 22 22 22 22 22 22 22 21 21 21 21 21 21 20 20 19 20
20 21 21 21 20 19 19 19 20 19 19 19 18 18 17 17 18 19 19 19 19 20 20 20 21 21 21 21 21 20 20 20 20 20 20 20 20 20 20 20 21 20 20 20
20 20 20 19 19 18 18 18 18 18 18 17 17 17 17 17 18 18 17 17 18 18 18 19 19 20 19 19 20 20 19 19 19 19 19 19 19 19 19 19 19 19 20 19
18 18 18 18 17 17 16 16 16 17 17 17 17 17 17 17 17 17 17 17 17 18 18 18 18 18 17 18 18 18 18 18 18 18 18 19 19 18 17 17 17 18 18 18
16 15 16 16 16 16 16 16 16 17 17 17 17 17 17 17 17 16 16 16 16 16 16 17 17 17 17 17 17 16 17 17 17 16 16 17 18 18 17 17 17 17 17 17
16 17 17 16 16 16 16 17 17 16 17 17 17 17 16 16 16 15 15 16 15 15 16 16 16 16 16 16 16 17 17 16 16 16 16 16 17 17 17 17 17 17 18 17
16 16 17 17 17 17 17 16 16 15 15 15 15 15 14 14 14 14 14 14 14 15 15 15 15 15 15 15 15 15 15 16 15 15 16 16 17 17 17 17 17 16 16 16
Wind_Direction
251 251 250 251 253 253 255 259 264 270 274 276 279 281 283 285 287 290 292 292 295 295 289 285 284 284 285 284 286 287 290 293 295 298 299 301 302 302 300 299 298 296 293 294
251 252 253 254 256 255 256 259 262 267 269 273 276 278 281 283 286 288 290 292 293 293 291 288 285 286 286 285 285 285 286 289 292 294 297 299 301 300 299 298 298 298 296 295
252 253 256 256 258 258 257 258 261 265 269 270 273 277 279 283 284 288 291 293 293 293 290 288 287 286 285 284 284 285 285 286 288 291 295 298 299 300 300 298 298 297 296 294
252 255 256 259 258 259 260 260 262 265 267 270 273 276 279 282 284 287 289 290 291 289 285 286 286 286 286 287 286 287 288 287 288 290 293 295 296 297 298 296 297 296 295 293
254 255 258 259 260 260 260 261 262 265 266 270 274 275 277 280 283 285 286 286 286 285 284 284 284 284 284 285 286 287 289 288 286 288 291 293 294 296 298 297 296 294 292 291
255 256 257 259 261 260 262 263 266 266 268 271 274 275 277 278 280 282 283 283 283 284 283 283 283 282 283 284 286 287 288 288 287 287 289 291 292 293 294 295 295 293 290 288
255 258 259 261 262 261 263 266 269 268 269 271 274 276 278 278 280 282 282 282 282 283 281 281 282 284 283 284 285 285 286 288 288 288 289 289 290 292 293 294 294 293 289 287
254 257 259 260 261 260 261 264 266 268 269 270 273 277 279 280 282 283 283 282 283 283 281 280 281 282 282 283 284 284 285 287 287 288 289 288 289 291 292 292 294 294 291 286
253 256 258 260 260 260 261 262 265 268 271 273 275 277 279 281 282 284 285 285 285 284 283 280 280 280 280 282 283 284 285 285 285 287 289 289 289 290 291 291 293 294 293 286
253 253 255 258 259 261 262 263 265 269 272 275 278 279 280 281 282 283 283 283 283 282 282 282 281 280 279 280 281 282 284 285 286 287 287 288 290 290 291 292 291 292 290 288
252 254 256 259 260 261 262 263 265 268 272 275 277 278 280 281 282 283 283 283 282 281 281 282 282 281 280 279 281 282 283 284 286 286 287 288 288 289 289 288 289 290 288 287
252 254 257 259 263 262 262 264 265 269 273 275 277 278 279 280 282 283 283 282 282 282 282 282 282 280 280 280 281 282 283 283 284 286 288 287 287 288 289 289 288 289 288 287
254 255 259 260 261 263 263 264 267 269 272 274 277 279 281 282 282 281 282 282 281 281 282 281 282 281 281 282 280 280 282 283 284 284 286 287 288 289 288 287 287 289 289 288
256 257 259 261 263 265 267 268 269 271 272 274 277 280 280 281 281 280 280 281 280 279 279 279 279 279 280 282 281 279 280 281 281 282 284 286 287 289 288 287 287 288 290 291
256 258 260 262 264 266 268 268 269 270 273 275 277 279 279 280 281 280 279 280 279 278 278 279 278 279 280 281 280 278 279 280 280 282 284 284 284 286 287 287 287 289 291 291
257 259 261 263 265 266 269 270 270 272 273 276 278 278 279 279 280 279 278 278 279 277 278 280 280 279 281 281 280 280 279 279 279 281 284 283 284 284 285 286 286 287 289 290
260 260 263 264 265 266 268 271 272 273 275 278 280 281 280 280 281 280 278 277 277 276 277 277 276 276 278 281 281 281 282 281 281 283 282 282 282 282 282 283 284 286 288 288
265 264 263 265 266 266 267 270 273 274 276 278 281 281 280 281 280 279 278 278 277 277 278 278 277 277 277 279 280 282 282 282 282 284 283 282 282 282 282 282 284 286 288 288
268 267 266 265 265 267 269 273 274 275 277 278 279 279 281 281 279 279 280 280 280 278 277 278 279 280 280 280 279 279 280 281 281 281 281 282 284 284 283 284 285 287 287 286
268 267 268 267 266 269 271 272 274 275 277 279 279 279 279 279 279 278 278 280 281 281 279 279 279 279 280 280 280 279 279 279 278 278 281 282 284 285 283 284 285 285 286 288
265 266 269 269 268 268 270 270 272 274 276 278 279 280 278 276 276 278 280 281 282 283 282 279 277 277 278 280 281 280 279 279 279 278 280 281 282 283 282 282 282 285 289 289
267 269 270 271 270 268 268 269 271 274 275 277 280 279 276 273 274 277 280 281 281 283 282 281 279 279 279 279 282 281 279 278 278 277 277 278 281 283 283 281 282 284 287 290
266 267 268 270 270 270 270 270 272 274 277 279 280 279 278 280 278 278 279 281 283 285 286 285 286 285 283 281 281 280 279 279 278 276 276 278 281 282 282 280 281 283 286 289
266 268 269 269 271 272 273 275 275 276 277 278 279 278 279 280 280 280 280 282 284 286 285 285 287 286 283 282 283 280 278 277 277 275 275 278 279 281 283 284 284 287 289 290
266 267 267 269 272 272 271 272 273 274 276 279 281 279 278 278 278 279 280 281 285 286 287 286 286 287 284 283 283 280 278 278 277 277 280 281 280 282 284 287 288 288 288 290
269 270 269 270 273 275 274 275 276 276 275 276 279 279 281 280 279 278 277 280 285 286 287 288 289 289 288 285 281 279 279 279 279 280 281 282 280 281 283 285 286 286 285 286
268 270 272 274 275 275 274 275 278 279 280 279 278 279 280 280 280 281 282 283 286 287 287 289 291 292 289 285 281 279 276 277 278 279 281 282 282 282 282 282 284 284 284 285
Height
5860 5861 5862 5862 5863 5863 5863 5862 5862 5862 5862 5861 5861 5860 5859 5858 5857 5856 5855 5853 5851 5849 5848 5847 5846 5845 5844 5843 5841 5839 5838 5836 5834 5832 5830 5828 5826 5824 5822 5820 5818 5816 5814 5812
5854 5855 5855 5855 5856 5857 5856 5856 5856 5856 5856 5855 5855 5854 5854 5853 5852 5851 5849 5847 5846 5844 5842 5841 5840 5838 5837 5837 5835 5834 5832 5830 5827 5826 5824 5822 5820 5818 5816 5814 5812 5809 5808 5806
5846 5847 5847 5848 5849 5850 5850 5850 5850 5850 5850 5849 5848 5848 5847 5846 5845 5844 5842 5841 5840 5838 5836 5835 5833 5832 5830 5830 5829 5827 5825 5823 5821 5820 5818 5817 5814 5812 5810 5808 5805 5803 5801 5799
5838 5840 5840 5843 5843 5842 5842 5842 5843 5844 5843 5842 5842 5841 5841 5840 5838 5837 5836 5834 5833 5832 5830 5829 5827 5826 5824 5823 5822 5820 5819 5817 5815 5813 5812 5810 5808 5806 5803 5801 5799 5797 5795 5793
5830 5831 5832 5834 5835 5835 5835 5835 5836 5836 5836 5835 5834 5834 5833 5832 5831 5830 5829 5828 5826 5825 5823 5822 5820 5818 5817 5816 5815 5813 5812 5810 5808 5807 5805 5803 5801 5799 5796 5794 5792 5790 5788 5786
5821 5822 5823 5827 5828 5827 5828 5827 5828 5828 5828 5828 5827 5826 5826 5825 5824 5823 5822 5820 5819 5817 5815 5814 5812 5810 5810 5809 5807 5806 5804 5803 5801 5799 5797 5796 5794 5792 5790 5788 5785 5783 5781 5779
5812 5813 5815 5818 5819 5820 5821 5821 5821 5820 5820 5820 5819 5819 5818 5817 5816 5815 5814 5812 5811 5809 5807 5806 5804 5802 5801 5801 5799 5798 5797 5795 5794 5792 5790 5789 5787 5785 5783 5780 5778 5775 5774 5772
5804 5805 5808 5809 5810 5811 5812 5813 5813 5813 5812 5812 5811 5810 5809 5809 5807 5806 5805 5804 5802 5801 5799 5797 5796 5795 5794 5793 5791 5790 5788 5787 5786 5784 5783 5781 5779 5777 5775 5773 5771 5769 5766 5765
5796 5798 5800 5800 5801 5802 5803 5804 5804 5804 5803 5803 5802 5802 5801 5800 5799 5797 5796 5795 5793 5792 5791 5789 5788 5787 5786 5784 5783 5781 5780 5779 5778 5776 5775 5773 5771 5769 5767 5765 5763 5761 5759 5757
5786 5788 5790 5791 5792 5793 5794 5795 5795 5795 5795 5794 5794 5793 5792 5791 5790 5789 5788 5786 5785 5783 5782 5780 5779 5778 5776 5775 5774 5773 5771 5770 5769 5768 5767 5765 5763 5761 5759 5757 5755 5753 5751 5750
5777 5779 5780 5782 5783 5784 5785 5786 5786 5786 5786 5786 5785 5784 5783 5783 5782 5780 5779 5777 5775 5774 5772 5771 5770 5768 5765 5765 5764 5764 5763 5762 5761 5760 5758 5756 5755 5753 5751 5749 5747 5746 5744 5743
5769 5771 5772 5774 5774 5775 5776 5777 5777 5778 5778 5777 5777 5776 5775 5774 5773 5771 5770 5768 5766 5765 5763 5761 5760 5758 5757 5756 5755 5755 5754 5753 5752 5751 5750 5748 5747 5745 5743 5742 5740 5738 5737 5736
5760 5762 5763 5765 5766 5766 5767 5768 5769 5769 5769 5769 5768 5767 5766 5765 5764 5762 5760 5759 5757 5756 5754 5753 5751 5750 5749 5748 5746 5745 5745 5744 5743 5742 5741 5740 5738 5737 5735 5734 5733 5731 5730 5729
5751 5753 5755 5756 5757 5758 5759 5759 5760 5760 5760 5760 5759 5758 5757 5755 5754 5753 5752 5750 5748 5747 5745 5744 5743 5742 5741 5739 5738 5737 5736 5736 5735 5734 5733 5732 5730 5729 5728 5727 5726 5724 5723 5721
5744 5745 5747 5748 5749 5749 5749 5750 5751 5752 5751 5751 5750 5749 5747 5746 5745 5744 5743 5741 5739 5737 5736 5735 5734 5733 5732 5731 5730 5728 5728 5727 5726 5726 5725 5724 5723 5722 5720 5719 5718 5717 5715 5714
5737 5738 5739 5740 5740 5741 5741 5742 5742 5742 5742 5741 5740 5739 5737 5736 5735 5734 5733 5732 5730 5729 5728 5726 5726 5725 5724 5723 5722 5720 5719 5719 5718 5718 5717 5716 5715 5714 5713 5712 5711 5710 5708 5707
5728 5729 5730 5731 5732 5732 5733 5733 5733 5732 5732 5732 5730 5729 5727 5726 5726 5724 5723 5722 5721 5720 5719 5718 5717 5716 5716 5715 5714 5713 5712 5711 5710 5709 5709 5708 5707 5706 5705 5705 5703 5702 5701 5700
5720 5721 5722 5723 5723 5724 5724 5724 5724 5724 5723 5722 5721 5720 5719 5718 5716 5715 5714 5713 5712 5711 5710 5709 5708 5707 5707 5707 5706 5704 5704 5703 5702 5702 5701 5700 5699 5698 5697 5696 5695 5694 5693 5692
5712 5713 5714 5714 5715 5715 5716 5716 5715 5715 5714 5713 5713 5711 5710 5709 5707 5706 5705 5705 5703 5703 5702 5701 5700 5699 5699 5698 5697 5697 5696 5695 5695 5694 5694 5693 5692 5691 5690 5690 5689 5688 5686 5685
5705 5706 5706 5706 5707 5707 5707 5707 5707 5707 5706 5705 5704 5703 5702 5701 5701 5700 5698 5697 5696 5695 5694 5694 5693 5692 5692 5691 5690 5689 5689 5688 5688 5687 5687 5686 5685 5685 5684 5683 5683 5682 5680 5679
5699 5699 5698 5698 5699 5700 5700 5700 5700 5699 5698 5698 5697 5696 5695 5695 5694 5694 5693 5692 5690 5689 5688 5687 5687 5686 5685 5684 5683 5682 5682 5681 5681 5680 5680 5680 5679 5678 5677 5677 5676 5675 5674 5672
5692 5692 5692 5692 5692 5692 5692 5692 5692 5692 5692 5692 5691 5690 5689 5689 5688 5687 5687 5686 5685 5683 5682 5681 5681 5680 5679 5678 5677 5676 5675 5675 5674 5674 5674 5673 5672 5672 5671 5671 5670 5669 5668 5666
5685 5685 5686 5686 5686 5686 5686 5686 5686 5686 5686 5686 5685 5684 5683 5683 5682 5681 5681 5680 5679 5678 5676 5676 5675 5673 5672 5672 5671 5670 5669 5669 5668 5668 5667 5667 5666 5666 5665 5664 5664 5663 5662 5661
5680 5679 5679 5679 5680 5680 5680 5680 5680 5680 5680 5680 5679 5678 5678 5677 5676 5676 5675 5674 5673 5672 5671 5670 5669 5667 5666 5666 5665 5664 5663 5663 5662 5662 5661 5661 5660 5660 5659 5659 5658 5657 5656 5655
5674 5674 5674 5674 5674 5675 5675 5675 5675 5675 5675 5674 5673 5672 5672 5671 5671 5670 5670 5669 5668 5667 5666 5665 5663 5662 5661 5660 5660 5659 5658 5657 5657 5656 5656 5655 5655 5654 5654 5653 5652 5652 5651 5650
5669 5669 5669 5669 5669 5670 5669 5669 5669 5669 5668 5668 5668 5667 5666 5666 5665 5665 5664 5664 5663 5662 5661 5660 5659 5658 5656 5655 5654 5654 5653 5652 5652 5652 5651 5651 5650 5649 5649 5648 5647 5647 5646 5645
5665 5664 5664 5665 5665 5664 5664 5664 5664 5663 5663 5662 5662 5662 5661 5661 5660 5659 5659 5658 5658 5657 5656 5655 5654 5653 5651 5650 5649 5649 5648 5648 5647 5647 5646 5645 5645 5644 5643 5642 5641 5641 5640 5639